Regional Weather Roundup
Issued by NWS

Home | Current Version | Previous Version | Graphics & Text | Print | Product List | Glossary On
Versions: 1 2 3 4 5 6 7 8 9 10 11 12 13 14 15 16 17 18 19 20 21 22 23 24 25 26 27 28 29 30 31 32 33 34 35 36 37 38 39 40 41 42 43 44 45 46 47 48 49 50
952
ASUS45 KTFX 061010
RWRMT
MONTANA REGIONAL WEATHER ROUNDUP
NATIONAL WEATHER SERVICE GREAT FALLS MT
300 AM MST SAT FEB 06 2016

NOTE: "FAIR" INDICATES FEW OR NO CLOUDS BELOW 12000 FEET WITH NO
SIGNIFICANT WEATHER AND/OR OBSTRUCTIONS TO VISIBILITY.

MTZ001>007-043-061100-
WEST OF THE DIVIDE

CITY           SKY/WX    TMP DP  RH WIND       PRES   REMARKS
KALISPELL      MOCLDY    39  30  70 S15       29.95F WCI  31
MISSOULA       CLOUDY    30  25  81 CALM      30.14F
BUTTE          CLOUDY    36  19  50 SW7       30.15F WCI  30
MULLAN PASS    SNOW      28  26  92 SW18G35   29.99F VSB 1/2 WCI  15
ANACONDA         N/A     36  19  51 S22G29    30.12R WCI  24
DEER LODGE       N/A     36  21  55 W6        30.13R WCI  31
HAMILTON         N/A     43  21  42 S8        30.16F
LIBBY            N/A     39  36  87 SE10G17   30.00R
PLAINS           N/A     44  29  56 S17       30.04F
$$

MTZ008-052>055-061100-
SOUTHWEST MONTANA

CITY           SKY/WX    TMP DP  RH WIND       PRES   REMARKS
BOZEMAN        CLOUDY    21  14  74 SE10      30.15F WCI  10
DILLON         CLOUDY    24  16  71 SW16      30.21F WCI  11
ENNIS          CLEAR     28  18  64 S23G30    30.28F WCI  14
THREE FORKS      N/A     35   1  23 S35       30.12F WCI  21
TWIN BRIDGES     N/A     27  14  57 SE13      30.19S WCI  16
$$

MTZ009-010-012-014-046-048-049-054-061100-
EAST SLOPES AND CENTRAL MONTANA

CITY           SKY/WX    TMP DP  RH WIND       PRES   REMARKS
CUT BANK       MOCLDY    44  23  43 SW35G54   29.80F
GREAT FALLS    CLOUDY    44  21  40 SW32G40   29.91F
MALMSTROM AFB  CLOUDY    43  22  42 SW26G39   29.92F
HELENA         CLOUDY    26  21  81 W5        30.09S
CHOTEAU          N/A     50  19  29 W24G41    29.86F
CONRAD           N/A     42  27  55 S5        29.87F
$$

MTZ011-013-016-021-045-047-050-051-061100-
NORTH CENTRAL MONTANA

CITY           SKY/WX    TMP DP  RH WIND       PRES   REMARKS
HAVRE          CLOUDY    43  27  53 SW25G33   29.82F
LEWISTOWN      CLOUDY    40  25  55 SW28G35   29.96F
N BAR RANCH      N/A     43  19  39 W15       29.95S
CHINOOK          N/A     48  23  37 SW18G26   29.82F
$$

MTZ017>020-022>027-061-062-061100-
NORTHEAST MONTANA

CITY           SKY/WX    TMP DP  RH WIND       PRES   REMARKS
GLASGOW        CLOUDY    36  26  67 SW7       29.84F WCI  30
JORDAN           N/A     36  26  67 W8G18     29.89F WCI  30
SIDNEY         CLOUDY    30  25  80 S10       29.85F WCI  21
WOLF POINT     CLOUDY    29  24  82 CALM      29.85F
MALTA            N/A    N/A N/A N/A MISG      29.78
PLENTYWOOD       N/A     36  27  69 W12       29.78F WCI  27
POPLAR           N/A     32  27  80 SW5       29.84F
SCOBEY           N/A     37  19  48 SW12      29.78F WCI  29
$$

MTZ028>42-056>058-061100-
SOUTHCENTRAL AND SOUTHEAST MONTANA

CITY           SKY/WX    TMP DP  RH WIND       PRES   REMARKS
BAKER          CLOUDY    34  19  54 W13       29.96F WCI  25
BILLINGS       CLOUDY    37  15  40 W20       30.03S WCI  27
LIVINGSTON     CLOUDY    35  17  47 SW44G53   30.05F WCI  19
MILES CITY     CLOUDY    30  21  69 SE7       29.96F WCI  23
EKALAKA          N/A     33  16  50 SW9       29.96F WCI  25
FORSYTH          N/A     45  18  33 SW10G20   29.97F
LAUREL           N/A     37  13  37 SW20      30.01F WCI  26
ROUNDUP          N/A     41  18  39 S7        29.90S
$$

REGIONAL REPORTS...DAKOTAS

CITY           SKY/WX    TMP DP  RH WIND       PRES   REMARKS
WILLISTON      CLOUDY    30  25  81 SW6       29.82F WCI  24
MINOT          CLOUDY    36  22  56 SW14      29.79F WCI  27
DICKINSON      CLOUDY    33  22  63 W17       29.87F WCI  22
BEACH            N/A     36  21  55 SW18      29.93F WCI  25
CROSBY           N/A     32  28  86 SW17G23   29.78F WCI  21
TIOGA            N/A     28  28 100 W10       29.84F WCI  19
WATFORD CITY     N/A     32  25  74 SW10      29.84F WCI  24
BISMARCK       CLOUDY    31  22  69 SW5       29.92F
GRAND FORKS    CLOUDY    23  18  81 S8        29.95F WCI  14
FARGO          CLOUDY    23  17  78 S10       29.99F WCI  12
BUFFALO SD       N/A     31  19  61 W14       29.92F WCI  21
RAPID CITY     CLOUDY    24  16  71 CALM      30.07F
$$

REGIONAL REPORTS...WYOMING/IDAHO/WASHINGTON

CITY           SKY/WX    TMP DP  RH WIND       PRES   REMARKS
GILLETTE       CLOUDY    29  16  58 SW20      30.06F WCI  16
SHERIDAN       CLOUDY    24  15  68 CALM      30.05F
BUFFALO WY     CLOUDY    34  16  47 S5        30.05F
CODY           CLOUDY    37  16  41 SW22G32   30.14S WCI  27
YELLOWSTONE LA   N/A     20  17  88 VRB5      30.33S
IDAHO FALLS    CLOUDY    20  16  84 E5        30.47S
SALMON         CLOUDY    10   7  85 CALM      30.38R
BOISE          CLOUDY    34  27  75 SE15      30.42R WCI  24
SPOKANE        PTCLDY    40  32  73 SW24      30.10R
$$

REGIONAL REPORTS...ALBERTA

CITY           SKY/WX    TMP DP  RH WIND       PRES   REMARKS
EDMONTON       PTCLDY    41  25  52 SW13      29.40R
CALGARY        PTCLDY    45  18  33 SW10G18   29.57F
LETHBRIDGE     CLEAR     43  27  52 SW23G30   29.71F
MEDICINE HAT   MOCLDY    39  30  70 SW18G28   29.73R WCI  30
WATERTON GATE    N/A     37  28  70 SW16G30     N/A  WCI  28
CARDSTON         N/A     41  27  56 SW25G39     N/A
MILK RIVER       N/A     45  23  42 W22G33      N/A
ONEFOUR          N/A     45  23  42 SW13        N/A
$$

REGIONAL REPORTS...SASKATCHEWAN

CITY           SKY/WX    TMP DP  RH WIND       PRES   REMARKS
SWIFT CURRENT  CLOUDY    41  27  56 SW20G28   29.63F
REGINA         CLOUDY    27  23  86 SW12      29.65F WCI  16
SASKATOON      CLOUDY    30  27  86 SW8       29.56F WCI  23
CYPRESS HILLS    N/A     41  21  45 W22G38      N/A
VAL MARIE        N/A     43  25  49 W13         N/A
ROCKGLEN         N/A     34  27  75 W20         N/A  WCI  22
$$




USA.gov is the U.S. government's official web portal to all federal, state and local government web resources and services.